Weather Roundup
Issued by NWS Springfield, MO

Home | Current Version | Previous Version | Text Only | Print | Product List | Glossary On
Versions: 1 2 3 4 5 6 7 8 9 10 11 12 13 14 15 16 17 18 19 20 21 22 23 24 25 26 27 28 29 30 31 32 33 34 35 36 37 38 39 40 41 42 43 44 45 46 47 48 49 50
000
NZUS99 KSGF 210607
HRRSGF

HOURLY WEATHER
NATIONAL WEATHER SERVICE SPRINGFIELD MO
1200 AM CST SAT JAN 21 2017

......SGF CWA......

CITY           SKY/WX    TMP DP  RH WIND       PRES   REMARKS
SPRINGFIELD    CLEAR     51  38  60 S15       29.54S
6HR MIN TEMP:  51; 6HR MAX TEMP:  59;

JOPLIN         CLEAR     56  39  53 S16G28    29.51S
6HR MIN TEMP:  49; 6HR MAX TEMP:  60;

WEST PLAINS    CLEAR     52  45  77 S8        29.63S
6HR MIN TEMP:  52; 6HR MAX TEMP:  58;

ROLLA          CLEAR     53  46  77 S13       29.55S
6HR MIN TEMP:  51; 6HR MAX TEMP:  54;

OSAGE BEACH    CLEAR     50  43  77 S9        29.54S
BRANSON        CLEAR     55  37  50 S7        29.60S

......SURROUNDING SGF CWA......

CITY           SKY/WX    TMP DP  RH WIND       PRES   REMARKS
CHANUTE        CLEAR     40  36  86 S10       29.46S WCI  33
PARSONS        CLEAR     51  36  56 S8        29.49R
COFFEYVILLE    CLEAR     52  36  54 S12       29.49R
EMPORIA        FOG       32  32 100 S9        29.44S VSB 1/4 WCI  24
GROVE OK       CLEAR     55  41  58 S10       29.55S
ROGERS AR      CLEAR     55  40  56 S13       29.58S
SILOAM SPRINGS CLEAR     55  39  54 S15       29.57S
HARRISON AR    CLEAR     58  39  49 S13       29.61S
NEAR YELLVILLE CLEAR     48  39  71 CALM      29.60S

......KANSAS AND MISSOURI......

CITY           SKY/WX    TMP DP  RH WIND       PRES   REMARKS
KANSAS CTY INT CLEAR     39  37  92 S7        29.43F WCI  34
DOWNTOWN KC    CLEAR     45  43  93 CALM      29.44S
COLUMBIA       CLEAR     48  45  89 S12       29.50F
SEDALIA        PTCLDY    50  40  68 SW8       29.49S
ST JOSEPH      FOG       37  37 100 CALM      29.42F VSB 1/4
ST LOUIS       PTCLDY    53  49  86 S7        29.59S
SPIRIT OF STL  CLEAR     47  47 100 NE5       29.57S
KIRKSVILLE     FOG       46  46 100 S10       29.48S VSB 1/2
WICHITA        CLEAR     37  36  96 SW9       29.49R WCI  30
TOPEKA         FOG       39  36  89 CALM      29.42F VSB 3/4
OLATHE         FOG       39  39 100 CALM      29.44S VSB 1/4

......TENNESSEE......

CITY           SKY/WX    TMP DP  RH WIND       PRES   REMARKS
MEMPHIS        CLOUDY    63  54  72 S10       29.71R
NASHVILLE      CLOUDY    58  52  80 S8        29.76S

......ARKANSAS.......

CITY           SKY/WX    TMP DP  RH WIND       PRES   REMARKS
FAYETTEVILLE   CLEAR     54  40  59 S13       29.59F
FT SMITH       CLEAR     46  38  73 NE5       29.61S
LITTLE ROCK    CLOUDY    50  49  96 CALM      29.68F

......OKLAHOMA.......

CITY           SKY/WX    TMP DP  RH WIND       PRES   REMARKS
TULSA          PTCLDY    59  35  40 S14       29.53R
PONCA CITY     CLEAR     45  37  73 SW7       29.53R
MCALESTER      PTCLDY    54  40  59 S5        29.61R
OKLAHOMA CITY  PTCLDY    54  32  43 SW14      29.56R

......IOWA............

CITY           SKY/WX    TMP DP  RH WIND       PRES   REMARKS
DES MOINES     LGT RAIN  42  41  96 SE7       29.43F VSB 1/2
QUAD CITIES    FOG       42  40  92 E7        29.53F VSB 1/4

......ILLINOIS........

CITY           SKY/WX    TMP DP  RH WIND       PRES   REMARKS
QUINCY         CLEAR     48  47  96 SE8       29.51F FOG
CHICAGO        DRZL/FOG  42  41  96 CALM      29.61F VSB 1



USA.gov is the U.S. government's official web portal to all federal, state and local government web resources and services.